Home > Weather > Taichung > Past weeks

Flag for Taiwan Past Weather in Taichung, Taiwan — Yesterday and Last 2 Weeks

Now
88 °F

Thundershowers. Partly sunny.


Feels Like: 105 °F
Forecast: 82 / 92 °F
Wind: 12 mph from West

Location: Chiang Kai Shek

Current Time: Jul 2, 2016 at 3:39:12 PM

Latest Report: Jul 2, 2016 at 3:00 PM


Visibility: N/A

Pressure: 29.80 "Hg

Humidity: 79%

Dew Point: 81 °F

Location of TaichungLocation

Past Weather in Taichung — Graph

°F

Taichung Temperature Yesterday

Maximum temperature yesterday: 91 °F (at 10:30 AM)
Minimum temperature yesterday: 81 °F (at 5:00 AM)
Average temperature yesterday: 86 °F

High & Low Weather Summary for the Past Weeks

 TemperatureHumidityPressure
High93 °F (Jun 21, 11:00 AM)100% (Jun 28, 4:30 PM)29.98 "Hg (Jun 28, 4:30 PM)
Low77 °F (Jun 28, 4:30 PM)56% (Jul 1, 10:30 AM)29.74 "Hg (Jun 22, 4:00 PM)
Average86 °F75%29.83 "Hg
* Reported Jun 17 2:00 PM — Jul 2 2:30 PM, Taichung, Weather by CustomWeather, © 2016

Note: Actual official high and low records may vary slightly from our data, if they occured in-between our weather recording intervals... More about our weather records

Advertising

Taichung Weather History for the Previous 24 Hours

Scroll right to see more
 ConditionsComfort  
Time TempWeatherWind HumidityBarometerVisibility
2:30 PM
Sat, Jul 2
88 °FPartly sunny.13 mph79%29.80 "HgN/A
2:00 PM90 °FBroken clouds.16 mph75%29.80 "HgN/A
1:30 PM90 °FScattered clouds.17 mph75%29.83 "HgN/A
1:00 PM90 °FScattered clouds.18 mph75%29.83 "HgN/A
12:30 PM90 °FScattered clouds.17 mph75%29.83 "HgN/A
12:00 PM91 °FScattered clouds.17 mph71%29.83 "HgN/A
11:30 AM91 °FScattered clouds.15 mph71%29.83 "HgN/A
11:00 AM91 °FScattered clouds.15 mph71%29.86 "HgN/A
10:30 AM91 °FScattered clouds.12 mph67%29.86 "HgN/A
10:00 AM90 °FScattered clouds.13 mph71%29.86 "HgN/A
9:30 AM91 °FScattered clouds.12 mph67%29.86 "HgN/A
9:00 AM90 °FScattered clouds.13 mph71%29.86 "HgN/A
8:30 AM88 °FScattered clouds.10 mph75%29.86 "HgN/A
8:00 AM88 °FScattered clouds.8 mph70%29.86 "HgN/A
7:30 AM86 °FScattered clouds.7 mph75%29.83 "HgN/A
7:00 AM86 °FScattered clouds.6 mph75%29.83 "HgN/A
6:30 AM84 °FScattered clouds.6 mph79%29.83 "HgN/A
6:00 AM84 °FScattered clouds.7 mph74%29.80 "HgN/A
5:30 AM82 °FScattered clouds.8 mph79%29.80 "HgN/A
5:00 AM82 °FPassing clouds.7 mph79%29.80 "HgN/A
4:30 AM82 °FPassing clouds.7 mph84%29.80 "HgN/A
4:00 AM82 °FPassing clouds.7 mph84%29.80 "HgN/A
3:30 AM82 °FPassing clouds.8 mph79%29.80 "HgN/A
3:00 AM84 °FPassing clouds.7 mph79%29.80 "HgN/A
2:30 AM84 °FPassing clouds.7 mph79%29.80 "HgN/A
12:00 AM84 °FPassing clouds.2 mph79%29.83 "HgN/A
11:30 PM
Fri, Jul 1
84 °FPassing clouds.6 mph84%29.83 "HgN/A
11:00 PM86 °FPassing clouds.6 mph79%29.86 "HgN/A
10:30 PM84 °FPassing clouds.7 mph84%29.86 "HgN/A
10:00 PM86 °FPassing clouds.7 mph75%29.86 "HgN/A
9:30 PM86 °FPassing clouds.7 mph79%29.86 "HgN/A
9:00 PM86 °FPassing clouds.9 mph79%29.86 "HgN/A
8:30 PM86 °FPassing clouds.8 mph79%29.83 "HgN/A
8:00 PM84 °FPassing clouds.7 mph84%29.83 "HgN/A
7:30 PM86 °FPassing clouds.9 mph79%29.83 "HgN/A
7:00 PM86 °FPassing clouds.7 mph79%29.83 "HgN/A
6:30 PM86 °FScattered clouds.7 mph79%29.80 "HgN/A
6:00 PM88 °FScattered clouds.8 mph75%29.80 "HgN/A
5:30 PM88 °FScattered clouds.7 mph75%29.80 "HgN/A
5:00 PM86 °FScattered clouds.8 mph79%29.80 "HgN/A
4:30 PM88 °FBroken clouds.10 mph75%29.80 "HgN/A
4:00 PM90 °FBroken clouds.13 mph71%29.80 "HgN/A
3:30 PM90 °FBroken clouds.13 mph71%29.80 "HgN/A
3:00 PM90 °FBroken clouds.14 mph71%29.80 "HgN/A
Weather by CustomWeather, © 2016

See weather overviewHow to use our weather pages